Regional Weather Roundup
Issued by NWS

Home | Current Version | Previous Version | Graphics & Text | Print | Product List | Glossary On
Versions: 1 2 3 4 5 6 7 8 9 10 11 12 13 14 15 16 17 18 19 20 21 22 23 24 25 26 27 28 29 30 31 32 33 34 35 36 37 38 39 40 41 42 43 44 45 46 47 48 49 50
000
ASUS43 KLMK 270802
RWRKY
KENTUCKY REGIONAL WEATHER ROUNDUP
NATIONAL WEATHER SERVICE LOUISVILLE KY
400 AM EDT TUE SEP 27 2016

NOTE "FAIR" INDICATES FEW OR NO CLOUDS BELOW 12,000 FEET
WITH NO SIGNIFICANT WEATHER AND/OR OBSTRUCTIONS TO VISIBILITY.

KYZ001>023-026-027-061>063-070>075-270900-
WESTERN AND SOUTH CENTRAL KENTUCKY

CITY           SKY/WX    TMP DP  RH WIND       PRES   REMARKS
PADUCAH        FOG       48  46  93 CALM      30.07S VSB 3/4
HENDERSON      CLEAR     48  45  87 CALM      30.06S
OWENSBORO      NOT AVBL
HOPKINSVILLE   CLEAR     54  53  95 CALM      30.07S
BOWLING GREEN  FOG       50  49  96 CALM      30.07F VSB 1/4
GLASGOW        NOT AVBL
$$

KYZ024-025-028>034-038-045-046-053-270900-
NORTH CENTRAL KENTUCKY

CITY           SKY/WX    TMP DP  RH WIND       PRES   REMARKS
LOUISVILLE/SDF CLEAR     58  51  78 VRB5      30.04F
LOUISVILLE/LOU CLEAR     53  49  86 CALM      30.05F
FORT KNOX      CLEAR     49  49  99 SW2       30.04F
$$

KYZ035>037-039>044-047>052-055>060-089>105-270900-
NORTHEAST KENTUCKY

CITY           SKY/WX    TMP DP  RH WIND       PRES   REMARKS
LEXINGTON      CLEAR     51  49  92 S5        30.06F
COVINGTON      CLEAR     52  50  93 SW5       30.02F
FRANKFORT      CLEAR     51  48  89 SW3       30.04F
$$

KYZ054-064>069-076>088-106>120-270900-
SOUTHEAST KENTUCKY

CITY           SKY/WX    TMP DP  RH WIND       PRES   REMARKS
JACKSON        PTCLDY    53  51  93 CALM      30.06F FOG
LONDON         CLEAR     52  48  86 CALM      30.07F
SOMERSET       FOG       50  50 100 CALM      30.08F VSB 1/2
MIDDLESBORO    CLOUDY    62  58  87 N7        30.06S
MONTICELLO     FOG       49  49 100 NW9       30.09F VSB<1/4
$$





USA.gov is the U.S. government's official web portal to all federal, state and local government web resources and services.